Home   Weather   Albany   Past weeks
Flag for Australia

Past Weather in Albany, Western Australia, Australia — April 2019

Now
59 °F

Overcast.


Feels Like: 57 °F
Forecast: 63 / 53 °F
Wind: 15 mph from West

Location: Albany Airport

Current Time: Oct 23, 2019 at 6:34:43 pm

Latest Report: Oct 23, 2019 at 6:00 pm


Visibility: N/A

Pressure: 29.93 "Hg

Humidity: 57%

Dew Point: 44 °F

Location of AlbanyLocation

April 2019 Weather in Albany — Graph

°F

High & Low Weather Summary for April 2019

 TemperatureHumidityPressure
High85 °F (Apr 1, 12:00 pm)100% (Apr 25, 3:00 am)30.45 "Hg (Apr 25, 3:00 am)
Low42 °F (Apr 6, 12:00 am)24% (Apr 28, 2:00 pm)29.59 "Hg (Apr 15, 3:00 am)
Average60 °F77%30.06 "Hg
* Reported Apr 1 12:00 am — Apr 30 11:00 pm, Albany. Weather by CustomWeather, © 2019

Note: Actual official high and low records may vary slightly from our data, if they occured in-between our weather recording intervals... More about our weather records

Advertising

Albany Weather History for April 1, 2019

Scroll right to see more
 ConditionsComfort  
Time TempWeatherWind HumidityBarometerVisibility
12:00 am
Mon, Apr 1
64 °FOvercast.8 mph84%29.90 "HgN/A
2:00 am64 °FMild.8 mph85%29.87 "HgN/A
3:00 am62 °FPassing clouds.7 mph86%29.85 "HgN/A
5:00 am61 °FCool.5 mph88%29.83 "HgN/A
6:00 am63 °FPassing clouds.9 mph70%29.83 "HgN/A
8:00 am75 °FMild.14 mph42%29.84 "HgN/A
9:00 am77 °FOvercast.18 mph43%29.85 "HgN/A
11:00 am85 °FPleasantly warm.18 mph40%29.85 "HgN/A
12:00 pm85 °FPleasantly warm.20 mph32%29.83 "Hg6 mi
2:00 pm79 °FWarm.15 mph50%29.83 "HgN/A
3:00 pm74 °FPassing clouds.16 mph59%29.84 "HgN/A
5:00 pm70 °FMild.15 mph77%29.88 "HgN/A
6:00 pm68 °FOvercast.13 mph79%29.91 "HgN/A
8:00 pm65 °FMild.9 mph94%29.96 "HgN/A
9:00 pm64 °FFog.9 mph95%29.97 "HgN/A
11:00 pm63 °FMild.7 mph92%30.00 "HgN/A
Weather by CustomWeather, © 2019

See weather overview